Starlink 30321

operational
NORAD ID: 57679 Int'l Des: 2023-124 Owner: SPXS Country: US Constellation: starlink
LEOCIRCULAR

Starlink 30321について

説明を読み込み中...

リアルタイム位置

3D地球を読み込み中...

次回通過

高度履歴

Altitude vs Time

uPlot chart will show altitude changes over time

軌道要素

1 57679U 23124S 25306.08134458 .00000032 00000-0 13196-4 0 9994
2 57679 53.1609 79.3245 0001138 88.4295 271.6836 15.30189525124031
Epoch: Nov 2, 2025 • Age: 31 hours

現在のステータス

高度 489.0 km
速度 7.62 km/s
衛星直下点 -39.88°S, 144.17°W
打ち上げ日 Aug 22, 2023
運用期間 2.1 years
タイプ internet

技術仕様

分類 Payload
質量 730.00 kg
乾燥質量 700.00 kg
総質量 730.00 kg
長さ 0.30 m
直径 4.10 m
スパン 29.00 m
形状 Box + pan
製造者 SPXS
バスタイプ Starlink V2M
フェーズステータス In Orbit
所有者/国 SPXS/US

大規模コンステレーション

Loading constellations...